Joplin, MO

12:45 PM CDT on April 26, 2017 (GMT -0500)
Joplin Regional

Weather History for KJLN - November, 2011

Change the Weather History Date:

Monday, November 7, 2011

  Actual Average Record
Temperature  
Mean Temperature 63 °F 52 °F  
Max Temperature 66 °F 63 °F 83 °F (2005)
Min Temperature 60 °F 42 °F 14 °F (1991)
Degree Days  
Heating Degree Days 2 13  
Month to date heating degree days 71 84  
Since 1 July heating degree days 337 336  
Cooling Degree Days 0 0  
Month to date cooling degree days 0 5  
Year to date cooling degree days 2189 1696  
Growing Degree Days 13 (Base 50)    
Moisture  
Dew Point 60 °F    
Average Humidity 91    
Maximum Humidity 100    
Minimum Humidity 81    
Precipitation  
Precipitation 0.85 in 0.13 in 0.85 in (2011)
Month to date precipitation 1.70 0.92  
Year to date precipitation 32.22 40.87  
Snow  
Snow 0.00 in - - ()
Month to date snowfall 0.0  
Snow Depth 0.00 in    
Sea Level Pressure  
Sea Level Pressure 30.01 in    
Wind  
Wind Speed 9 mph (SSE)    
Max Wind Speed 18 mph    
Max Gust Speed 30 mph    
Visibility 8 miles    
Events Rain , Thunderstorm    
T = Trace of Precipitation, MM = Missing Value Source: NWS Daily Summary

Daily Weather History Graph

Daily Weather History Graph

Search for Another Location

Airport or City:

Trip Planner

Search our weather history database for the weather conditions in past years. The results will help you decide how hot, cold, wet, or windy it might be!

Date:

Astronomy

Nov. 07, 2011 Rise Set
Actual Time 6:48 AM CST 5:14 PM CST
Civil Twilight 6:20 AM CST 5:41 PM CST
Nautical Twilight 5:49 AM CST 6:12 PM CST
Astronomical Twilight 5:19 AM CST 6:43 PM CST
Moon 3:23 PM CST (11/7) 3:54 AM CST (11/7)
Length of Visible Light 11h 20m
Length of Day
10h 26m
Waxing Gibbous, 92% of the Moon is Illuminated
Nov 7
Waxing Gibbous
Nov 10
Full
Nov 18
Last Quarter
Nov 25
New
Dec 2
First Quarter

Hourly Weather History & Observations

Time (CST) Temp. Dew Point Humidity Pressure Visibility Wind Dir Wind Speed Gust Speed Precip Events Conditions
12:53 AM 60.1 °F 59.0 °F 96% 30.04 in 8.0 mi South 8.1 mph - 0.05 in   Overcast
1:37 AM 60.8 °F 59.0 °F 94% 30.06 in 6.0 mi SSE 8.1 mph - 0.03 in Rain , Thunderstorm Light Rain
1:46 AM 60.8 °F 59.0 °F 94% 30.06 in 7.0 mi South 8.1 mph - 0.03 in Rain Light Rain
1:53 AM 60.1 °F 59.0 °F 96% 30.04 in 6.0 mi SSE 9.2 mph - 0.04 in Rain Light Rain
2:53 AM 60.1 °F 60.1 °F 100% 30.05 in 4.0 mi SSW 6.9 mph - 0.18 in Rain Light Rain
3:53 AM 60.8 °F 60.8 °F 100% 30.06 in 9.0 mi SSW 5.8 mph - N/A Rain Light Rain
3:56 AM 60.8 °F 60.8 °F 100% 30.06 in 8.0 mi SSW 4.6 mph - 0.00 in Rain Light Rain
4:29 AM 60.8 °F 60.8 °F 100% 30.06 in 9.0 mi SSE 4.6 mph - 0.01 in Rain Light Rain
4:53 AM 61.0 °F 60.1 °F 97% 30.06 in 10.0 mi Calm Calm - 0.01 in Rain Light Rain
5:06 AM 60.8 °F 60.8 °F 100% 30.07 in 9.0 mi SSE 4.6 mph - 0.00 in Rain Light Rain
5:14 AM 60.8 °F 60.8 °F 100% 30.07 in 9.0 mi South 4.6 mph - 0.00 in Rain Light Rain
5:39 AM 60.8 °F 60.8 °F 100% 30.08 in 10.0 mi SE 5.8 mph - 0.00 in   Overcast
5:53 AM 61.0 °F 60.1 °F 97% 30.06 in 8.0 mi SE 5.8 mph - 0.00 in Rain Light Rain
6:53 AM 61.0 °F 60.1 °F 97% 30.07 in 7.0 mi Calm Calm - 0.01 in Rain Light Rain
7:22 AM 60.8 °F 60.8 °F 100% 30.09 in 2.5 mi SE 6.9 mph - 0.03 in Rain Rain
7:38 AM 60.8 °F 60.8 °F 100% 30.09 in 4.0 mi South 8.1 mph - 0.04 in Rain Light Rain
7:53 AM 62.1 °F 60.1 °F 93% 30.08 in 8.0 mi SSE 8.1 mph - 0.04 in   Overcast
8:09 AM 62.6 °F 60.8 °F 94% 30.10 in 7.0 mi SSE 6.9 mph - N/A   Overcast
8:53 AM 62.1 °F 61.0 °F 96% 30.09 in 8.0 mi SSE 10.4 mph - N/A   Mostly Cloudy
9:53 AM 63.0 °F 60.1 °F 90% 30.09 in 10.0 mi South 12.7 mph - N/A   Clear
10:53 AM 63.0 °F 60.1 °F 90% 30.10 in 10.0 mi South 10.4 mph - N/A   Overcast
11:00 AM 62.6 °F 60.8 °F 94% 30.11 in 10.0 mi South 11.5 mph - N/A   Overcast
11:53 AM 63.0 °F 60.1 °F 90% 30.06 in 10.0 mi South 10.4 mph - 0.00 in Rain Light Rain
12:11 PM 62.6 °F 60.8 °F 94% 30.06 in 9.0 mi South 13.8 mph - 0.00 in Rain Light Rain
12:53 PM 62.1 °F 59.0 °F 90% 30.01 in 6.0 mi SE 11.5 mph 20.7 mph 0.05 in Rain Rain
1:53 PM 64.9 °F 60.1 °F 84% 29.99 in 10.0 mi SSE 11.5 mph 18.4 mph 0.00 in   Mostly Cloudy
2:15 PM 66.2 °F 60.8 °F 83% 30.00 in 10.0 mi SSE 6.9 mph - N/A   Overcast
2:33 PM 66.2 °F 60.8 °F 83% 29.99 in 10.0 mi SSE 11.5 mph - N/A   Overcast
2:53 PM 66.0 °F 61.0 °F 84% 29.97 in 10.0 mi SSE 11.5 mph - N/A   Overcast
3:27 PM 64.4 °F 60.8 °F 88% 29.97 in 9.0 mi SSE 13.8 mph 21.9 mph 0.00 in Rain Light Rain
3:53 PM 64.9 °F 61.0 °F 87% 29.94 in 10.0 mi SSE 12.7 mph - 0.00 in   Overcast
4:53 PM 64.9 °F 61.0 °F 87% 29.94 in 9.0 mi SE 9.2 mph - 0.01 in   Overcast
5:53 PM 64.9 °F 60.1 °F 84% 29.94 in 10.0 mi SSE 10.4 mph - N/A   Scattered Clouds
6:53 PM 64.9 °F 59.0 °F 81% 29.94 in 10.0 mi SSE 12.7 mph - 0.01 in   Mostly Cloudy
7:53 PM 64.4 °F 59.0 °F 83% 29.95 in 10.0 mi SSE 10.4 mph - N/A Rain Light Rain
8:53 PM 64.0 °F 57.9 °F 80% 29.91 in 10.0 mi SSE 11.5 mph - 0.00 in   Scattered Clouds
9:53 PM 64.0 °F 57.9 °F 80% 29.89 in 8.0 mi SSE 16.1 mph 26.5 mph 0.02 in Rain , Thunderstorm Light Thunderstorms and Rain
10:18 PM 62.6 °F 60.8 °F 94% 29.91 in 2.0 mi SSE 17.3 mph 23.0 mph 0.21 in Rain , Thunderstorm Heavy Thunderstorms and Rain
10:25 PM 62.6 °F 60.8 °F 94% 29.89 in 1.2 mi SE 13.8 mph 23.0 mph 0.36 in Rain , Thunderstorm Heavy Thunderstorms and Rain
10:30 PM 62.6 °F 60.8 °F 94% 29.90 in 2.5 mi SE 11.5 mph - 0.36 in Rain , Thunderstorm Light Thunderstorms and Rain
10:37 PM 62.6 °F 59.0 °F 88% 29.90 in 10.0 mi SSE 10.4 mph - 0.36 in Thunderstorm Thunderstorm
10:53 PM 63.0 °F 59.0 °F 87% 29.87 in 10.0 mi SSE 8.1 mph 29.9 mph 0.36 in Thunderstorm Overcast
11:02 PM 62.6 °F 59.0 °F 88% 29.89 in 10.0 mi SE 8.1 mph - N/A   Overcast
11:53 PM 63.0 °F 59.0 °F 87% 29.85 in 10.0 mi SE 9.2 mph - N/A   Scattered Clouds